Regional Weather Roundup
Issued by NWS Kansas City/Pleasant Hill, MO

Home | Current Version | Previous Version | Graphics & Text | Print | Product List | Glossary Off
Versions: 1 2 3 4 5 6 7 8 9 10 11 12 13 14 15 16 17 18 19 20 21 22 23 24 25 26 27 28

000
ASUS43 KEAX 281110
RWREAX

WEATHER ROUNDUP FOR EASTERN KANSAS AND NORTHWEST MISSOURI
NATIONAL WEATHER SERVICE KANSAS CITY/PLEASANT HILL MO
600 AM CDT WED SEP 28 2016

KSZ040-057-103>105-MOZ028-029-037-043-281200-
...KANSAS CITY METROPOLITAN AREA...

CITY           SKY/WX    TMP DP  RH WIND       PRES   REMARKS
K.C. INTL      CLEAR     57  49  74 N10       29.92R
K.C. DOWNTOWN  CLEAR     60  54  80 N6        29.90R
LEES SUMMIT    CLEAR     59  53  80 N13       29.90R
OLATHE - IXD   CLEAR     58  54  86 NW9       29.91R
OLATHE - OJC   CLEAR     59  53  80 N8        29.90R
LAWRENCE       CLEAR     54  53  97 W7        29.91R

$$

MOZ001>008-011>017-020>025-030>033-038>040-044>046-053-054-281200-
...NORTHERN AND CENTRAL MISSOURI...

CITY           SKY/WX    TMP DP  RH WIND       PRES   REMARKS
ST. JOSEPH     CLEAR     53  49  86 N10       29.94R
MOSBY          SUNNY     52  52 100 NW3       29.92R
WHITEMAN AFB   CLEAR     58  58  98 NW9       29.86R
CLINTON        CLEAR     55  54  94 CALM      29.87S
SEDALIA        CLEAR     59  54  83 NW7       29.88R
WARSAW         NOT AVBL
CHILLICOTHE      N/A     55  47  74 N6        29.92R
KIRKSVILLE     CLOUDY    53  43  68 N12       29.90R

$$

MOZ041-047>049-056>058-063>065-088>090-097-281200-
...EASTERN AND SOUTHERN MISSOURI...

CITY           SKY/WX    TMP DP  RH WIND       PRES   REMARKS
ST. LOUIS INTL CLOUDY    63  53  70 W7        29.80S
SPIRIT OF STL  MOCLDY    61  55  81 W6        29.80R
COLUMBIA       CLEAR     58  55  90 W9        29.85R
JEFFERSON CITY PTCLDY    60  54  80 W6        29.84R
ROLLA          CLEAR     56  50  80 SW8       29.83F
OSAGE BEACH    CLEAR     61  52  72 W6        29.86S
SPRINGFIELD    CLEAR     63  47  55 W12       29.89S
BRANSON        CLEAR     63  46  55 SW7       29.93F
JOPLIN         CLEAR     63  49  60 SW13      29.91S
WEST PLAINS    CLEAR     54  48  80 SW5       29.92S

$$

IAZ060-094-KSZ022-034>040-054-083-096-NEZ052-066-093-281200-
...KANSAS...SOUTHEAST NEBRASKA AND IOWA...

CITY           SKY/WX    TMP DP  RH WIND       PRES   REMARKS
TOPEKA         CLEAR     56  52  86 W3        29.93R
MANHATTAN      CLEAR     56  51  84 CALM      29.95R
EMPORIA        CLEAR     57  54  89 NW7       29.93R
CHANUTE        CLEAR     58  52  80 CALM      29.90R
WICHITA        CLEAR     60  53  77 NW8       29.95R
OMAHA          PTCLDY    47  42  83 N10       30.02R
LINCOLN        CLEAR     49  44  83 N9        30.05R
FALLS CITY     CLEAR     54  47  77 N6        29.96R
LAMONI         CLEAR     51  43  74 N10       29.94R
DES MOINES     MOCLDY    52  43  71 N12       29.97R

$$





USA.gov is the U.S. government's official web portal to all federal, state and local government web resources and services.